Temp
16 16 16 16 16 15 15 14 14 14 14 14 14 13 12 12 12 12 12 11 11 11
16 15 15 15 14 14 14 14 13 13 13 12 12 12 11 11 11 11 11 11 10 10
14 13 13 12 12 12 12 11 12 11 11 11 11 11 11 10 10 10 10 10 10 10
12 11 11 11 11 11 12 11 11 10 10 10 10 10 9 9 10 9 9 9 9 9
11 11 10 10 10 10 10 10 10 9 9 9 9 9 8 9 9 9 9 8 8 7
9 9 9 9 9 9 9 9 9 8 8 8 8 8 8 8 8 8 8 8 7 7
9 9 9 9 9 8 8 8 8 8 8 8 8 7 7 7 7 7 6 6 7 7
10 10 9 9 9 9 8 8 8 7 7 7 7 7 7 7 6 6 6 6 6 6
11 10 9 9 8 8 8 7 7 7 7 7 7 7 7 7 6 6 5 5 5 5
10 10 9 8 8 8 8 7 7 7 7 7 7 7 7 7 6 5 5 5 5 4
10 10 9 8 8 7 7 7 7 7 7 6 7 7 6 6 5 5 5 5 5 5
10 9 9 8 8 7 7 7 7 7 6 6 6 7 5 5 4 4 4 4 4 4
9 8 8 9 9 8 7 7 7 6 6 6 6 6 5 4 3 3 3 2 3 2
8 7 7 7 8 7 6 6 6 6 6 5 5 4 5 5 2 3 2 2 1 2
Height
755 759 762 765 767 769 771 772 774 775 776 778 780 783 785 786 787 789 790 791 795 796
755 757 759 761 764 767 767 767 769 771 772 775 778 779 780 784 784 785 788 792 794 796
754 756 759 759 761 764 769 768 768 769 770 771 774 777 779 781 783 786 788 789 794 799
755 756 757 758 758 760 760 765 766 767 767 769 767 772 776 779 780 782 787 788 791 794
753 756 757 760 760 761 763 762 762 766 767 767 767 768 769 775 779 781 783 786 787 791
751 753 756 757 758 759 761 761 761 763 764 767 771 773 773 774 776 778 781 784 784 780
750 749 749 751 753 756 756 757 760 763 764 763 763 765 768 771 773 776 778 782 787 787
751 749 749 749 750 750 751 752 753 758 761 762 761 761 762 764 768 770 769 772 778 784
747 749 749 750 752 751 751 752 753 753 756 758 757 758 759 761 763 765 767 768 770 778
750 751 750 746 746 745 746 748 748 748 747 750 752 751 753 753 757 762 766 766 766 772
748 749 746 744 745 744 745 744 742 742 744 745 744 748 751 751 755 754 761 760 763 765
745 741 739 739 741 740 739 739 739 739 739 738 738 741 741 742 746 749 756 760 763 763
741 739 739 737 735 733 732 733 734 734 735 734 732 733 735 738 738 740 746 759 757 767
736 734 732 731 729 728 727 727 727 725 723 727 729 728 725 728 730 731 737 747 752 760
Wind_Speed
9 9 10 10 11 13 15 16 16 15 16 16 17 17 18 19 20 24 25 27 26 30
5 5 6 7 8 10 11 13 15 16 17 17 17 17 17 19 19 21 22 23 24 24
5 3 4 5 5 7 10 11 12 14 15 16 15 16 17 18 17 18 19 17 18 20
3 2 2 4 6 8 8 11 12 14 16 16 16 17 18 17 16 16 15 14 15 16
3 0 2 5 7 8 10 11 12 15 16 19 19 19 19 17 17 16 15 16 16 16
3 1 2 5 7 8 10 11 13 16 18 18 18 18 18 18 17 17 18 19 21 23
2 2 4 6 8 10 10 13 15 17 19 21 22 23 20 20 20 21 20 19 19 20
10 11 12 13 13 11 13 16 17 19 21 23 25 25 25 23 24 26 26 25 23 22
12 13 14 17 18 18 20 20 20 23 25 28 28 27 26 25 27 29 30 29 26 23
12 14 15 15 18 20 22 25 27 29 29 33 33 32 30 28 31 31 29 28 27 27
11 13 15 16 19 22 26 28 30 33 33 36 37 35 34 32 32 31 31 31 31 31
10 12 13 16 20 24 25 27 30 35 38 38 41 40 39 36 36 31 32 32 32 31
18 18 20 21 21 25 25 28 29 33 37 42 43 42 39 37 37 34 34 34 30 30
19 20 22 24 25 23 24 26 29 31 33 36 40 43 43 43 41 39 38 38 34 30
Wind_Direction
202 214 230 242 248 252 253 254 256 255 261 258 261 258 252 245 238 234 227 223 222 216
193 204 220 234 246 254 254 254 255 258 253 254 252 246 237 229 219 216 220 221 218 218
175 210 229 237 247 264 277 266 262 261 253 248 239 231 221 216 215 215 215 218 221 223
52 10 310 287 278 279 276 278 274 260 244 231 217 215 215 210 205 202 202 203 215 226
101 350 303 303 299 293 281 272 266 255 239 227 220 213 202 200 197 203 207 209 191 181
112 109 309 302 303 288 280 277 263 250 237 231 226 213 207 205 208 209 203 203 196 179
238 293 295 283 276 274 277 269 263 255 244 232 218 209 212 216 212 206 200 196 194 190
330 322 302 284 276 271 263 261 257 251 246 235 217 217 214 212 209 203 197 195 196 200
334 316 307 301 295 287 280 263 255 249 243 232 226 227 226 218 207 204 198 188 185 189
327 314 305 301 289 283 276 267 258 253 242 234 234 232 226 215 211 204 201 193 184 183
305 300 303 302 289 279 274 266 261 252 247 239 240 240 232 217 215 206 206 200 195 188
312 312 311 286 284 275 270 263 256 259 253 245 245 243 232 213 212 211 212 207 200 193
311 309 301 294 290 286 267 266 265 263 263 255 254 249 236 221 219 205 205 207 199 202
308 308 303 300 295 286 266 261 262 261 264 265 262 256 241 224 213 205 198 202 195 198